Regional Weather Roundup
Issued by NWS

Home | Current Version | Previous Version | Text Only | Print | Product List | Glossary On
Versions: 1 2 3 4 5 6 7 8 9 10 11 12 13 14 15 16 17 18 19 20 21 22 23 24 25 26 27 28 29 30 31 32 33 34 35 36 37 38 39 40 41 42 43 44 45 46 47 48 49 50
000
ASUS44 KLUB 251810
RWRTX
WEST TEXAS WEATHER ROUNDUP
NATIONAL WEATHER SERVICE LUBBOCK TX
100 PM CDT SUN SEP 25 2016

NOTE: "FAIR" INDICATES FEW OR NO CLOUDS BELOW 12,000 FEET WITH NO
SIGNIFICANT WEATHER AND/OR OBSTRUCTIONS TO VISIBILITY.

TXZ004-006>008-010-012-014-016-OKZ002-251900-
TEXAS PANHANDLE/OKLAHOMA PANHANDLE

CITY           SKY/WX    TMP DP  RH WIND       PRES   REMARKS
AMARILLO       SUNNY     69  41  36 NE24G35   30.30F
BORGER         SUNNY     70  40  33 NE22G32   30.30F
CANADIAN       CLOUDY    66  47  50 NE15G21   30.28S
DALHART        MOSUNNY   70  36  28 N30G37    30.35F
DUMAS          SUNNY     69  38  31 N23G31    30.32S
GUYMON         SUNNY     73  37  27 N24G33    30.31F
HEREFORD       PTSUNNY   69  42  37 NE24G35   30.31S
PAMPA          MOSUNNY   69  44  40 NE22G28   30.30S
PERRYTON       MOSUNNY   73  42  32 N17G29    30.29S
$$

TXZ026-029-035-045-048-251900-
SOUTHERN PANHANDLE/SOUTH PLAINS/ROLLING PLAINS

CITY           SKY/WX    TMP DP  RH WIND       PRES   REMARKS
CHILDRESS      LGT RAIN  58  54  86 N18G29    30.22R
SEMINOLE       HVY RAIN  65  62  87 N13G18    30.20R
LUBBOCK        CLOUDY    65  49  56 NE25G38   30.21R
PLAINVIEW      CLOUDY    63  45  50 N21G30    30.24S
SNYDER           N/A     70  63  80 CALM      30.17R
$$

TXZ052-054-060>062-072-078-127-140-154-169-251900-
PERMIAN BASIN/CONCHO VALLEY/BIG COUNTRY/EDWARDS PLATEAU

CITY           SKY/WX    TMP DP  RH WIND       PRES   REMARKS
ABILENE        RAIN      70  66  87 NE5       30.13R FOG
BIG SPRING     CLOUDY    73  65  78 E13       30.18S
BROWNWOOD      LGT RAIN  72  66  83 N5        30.07F
JUNCTION       LGT RAIN  68  68 100 NW6       30.06F
MIDLAND        CLOUDY    72  60  66 E6        30.15R
ODESSA         CLOUDY    72  60  66 MISG      30.17R
SAN ANGELO     RAIN      69  66  90 NE3       30.12F FOG
SONORA         LGT RAIN  66  66 100 NE15      30.12F
SWEETWATER     CLOUDY    67  67 100 NE7       30.19
WINK           CLOUDY    76  61  59 N8        30.11S
$$

TXZ055-058-074-075-080-082-251900-
FAR WEST/SOUTHWEST MOUNTAINS/TRANS PECOS

CITY           SKY/WX    TMP DP  RH WIND       PRES   REMARKS
ALPINE         CLOUDY    64  56  77 NE6       30.24S
DRYDEN           N/A     69  67  93 NE7       30.07S
EL PASO        PTSUNNY   77  33  20 NE16      30.15S
FORT STOCKTON  CLOUDY    70  62  76 NE8       30.13R
GUADALUPE PASS CLOUDY    67  45  45 NE29G36   30.23S
MARFA          CLOUDY   N/A N/A N/A NE7       30.21R
PECOS          CLOUDY    73  62  68 N8        30.13R
PRESIDIO       CLOUDY    66  62  86 SE3       30.12R
$$

TXZ014-016-019-021>030-083-251900
TEXAS TECH WEST TEXAS MESONET/TEXAS PANHANDLE/NORTHERN SOUTH PLAINS

CITY           SKY/WX    TMP DP  RH WIND       PRES   REMARKS
ABERNATHY 5ENE   N/A     64  47  55 NE25G33   30.27R
AMARILLO 9NNE    N/A     70  42  36 NE20G25   30.31F
AMARILLO 7SSE    N/A     68  41  37 N23G30    30.32F
AMHERST 1NE      N/A     64  46  50 NE21G30   30.29R
BOOTLEG 11WNW    N/A     66  40  37 NE20      30.37S
CAPROCK CYN SP   N/A     62  47  57 N12G17    30.26S
CHILDRESS 2NNE   N/A     57  54  91 N13G18    30.23R
CLARENDON 2WSW   N/A     64  44  48 N29G37    30.27F
CLAUDE 12SW      N/A     67  42  39 N29G36    30.29S
DIMMITT 2NE      N/A     67  43  42 N25G32    30.30R
FLOYDADA 2NNE    N/A     61  48  61 N26G37    30.25R
FRIONA 2NE       N/A     67  40  37 N24G33    30.33S
GOODLETT 3W    LGT RAIN  58  55  88 N18G25    30.20R
HART 3N          N/A     66  46  46 NE18G26   30.30R
HEREFORD 2NW     N/A     68  38  33 NE26G35   30.33S
MCLEAN 1E        N/A     61  43  51 N24G35    30.27R
MULESHOE 2SSW    N/A     66  45  45 N18G28    30.30S
OLTON 6S         N/A     65  45  48 N25G33    30.28R
PALO DURO SP     N/A     69  43  38 NE13G21   30.31S
PAMPA 2E         N/A     63  45  51 N20G28    30.30S
PLAINVIEW 1S     N/A     64  46  50 N23       30.27R
SILVERTON 7ESE   N/A     61  44  52 N22G30    30.25S
TULIA 2ENE       N/A     68  44  41 NE29G36   30.29S
TURKEY 2WSW      N/A     60  52  75 N15       30.25F
UMBARGER 3NNE    N/A     69  41  36 NE29      30.32S
$$

TXZ033>036-039>041-045>048-251900
TEXAS TECH WEST TEXAS MESONET/SOUTH PLAINS

CITY           SKY/WX    TMP DP  RH WIND       PRES   REMARKS
AIKEN 3WSW       N/A     64  46  51 NE24G31   30.28R
ANDREWS 2NE      N/A     72  59  63 E8        30.20S
ANTON 6SSW       N/A     63  48  59 N24G32    30.25R
BROWNFIELD 2S    N/A     62  55  78 N25G35    30.22R
DENVR CTY 7WNW   N/A     66  55  68 N23G32    30.23R
GAIL 2ESE        N/A     71  62  72 E9        30.17R
LAMESA 2SE       N/A     71  62  74 E8        30.18R
LEVELLAND 4S     N/A     62  48  60 N28G35    30.25R
LUBBOCK 3WNW     N/A     65  47  52 NE25G35   30.24R
MORTON 1ENE      N/A     67  46  47 N24G31    30.27S
ODONNELL 1N      N/A     71  60  69 NE9       30.18R
PLAINS 3N        N/A     64  52  64 N26       30.24F
RALLS 1SE        N/A     58  50  75 NE23G33   30.25R
REESE CENTER     N/A     63  48  57 N25G36    30.25R
SEAGRAVES 1SW    N/A     65  59  81 N17G26    30.22R
SEMINOLE 2NNE    N/A     65  59  80 N20G28    30.21R
SLATON 2NE       N/A     60  52  73 N24G35    30.22R
SNYDER 3E        N/A     70  64  79 E8        30.17R
SUNDOWN 8SW      N/A     64  52  66 N24G33    30.24S
TAHOKA 3NNE    LGT RAIN  58  55  89 N31       30.23R
WOLFFORTH 6SSW   N/A     63  52  69 N24G32    30.23R
$$

TXZ031-032-036>038-042>044-251900-
TEXAS TECH WEST TEXAS MESONET/ROLLING PLAINS

CITY           SKY/WX    TMP DP  RH WIND       PRES   REMARKS
ASPERMONT 3NE    N/A     70  67  90 N5        30.15R
FLUVANNA 3WNW    N/A     70  61  73 E9        30.18R
GRAHAM 5SSW      N/A     71  62  71 E12G18    30.17R
GUTHRIE 10WSW    N/A     61  57  88 N22G29    30.18R
HASKELL 1NW      N/A     69  67  93 N9        30.14R
JAYTON 1SSE      N/A     72  64  75 NE12      30.14S
KNOX CITY 3NW    N/A     72  65  78 NE6       30.15R
LK A HENRY 1NW   N/A     72  61  69 NE10      30.16R
NORTHFIELD 1S  LGT RAIN  58  55  91 N12       30.25R
ODELL 4ENE       N/A     63  60  90 N17       30.18R
PADUCAH 10SW     N/A     59  56  92 N21       30.21R
POST 1NE         N/A     64  56  75 N26G36    30.19R
RRING SPRGS 3N   N/A     54  54  99 N20G25    30.25R
SEYMOUR 3NW      N/A     73  67  83 N10       30.13S
SPUR 1W          N/A     58  54  87 N22G30    30.19R
WHITE RVR 6NE    N/A     56  53  88 N23G35    30.20R
$$

TXZ052-054-060>062-072-078-127-140-154-169-251900-
TEXAS TECH WEST TEXAS MESONET/PERMIAN BASIN/
CONCHO VALLEY/BIG COUNTRY/EDWARDS PLATEAU

CITY           SKY/WX    TMP DP  RH WIND       PRES   REMARKS
COYANOSA 2N      N/A     73  64  73 NE7       30.14R
JUNCTION 1SSW    N/A     67  67  99 NW9       30.07F
MERTZON 3NNE   LGT RAIN  66  65  97 NE6       30.14F
SAN ANGELO 7NW   N/A     67  63  87 NE3       30.14F
STRLNG CT 4WSW   N/A     67  65  94 NE7       30.17S
ST LAWRNCE 5SW   N/A     66  63  90 E9        30.15F
WALL 1E        RAIN      66  63  90 E1        30.15R
$$

TXZ055-058-074-075-080-082-251900-
TEXAS TECH WEST TEXAS MESONET/FAR WEST/SOUTHWEST MOUNTAINS/TRANS PECOS

CITY           SKY/WX    TMP DP  RH WIND       PRES   REMARKS
PRSMN GAP BBNP   N/A     69  64  85 NE3       30.11R
GUADLPE MTN NP   N/A     67  47  49 NE15G21   30.27S
$$




USA.gov is the U.S. government's official web portal to all federal, state and local government web resources and services.